Regional Weather Roundup
Issued by NWS

Home | Current Version | Previous Version | Graphics & Text | Print | Product List | Glossary On
Versions: 1 2 3 4 5 6 7 8 9 10 11 12 13 14 15 16 17 18 19 20 21 22 23 24 25 26 27 28 29 30 31 32 33 34 35 36 37 38 39 40 41 42 43 44 45 46 47 48 49 50
000
ASUS45 KSLC 240210
RWRUT

UTAH REGIONAL WEATHER ROUNDUP
NATIONAL WEATHER SERVICE SALT LAKE CITY UT
800 PM MDT WED JUL 23 2014

UTZ001>011-023>025-240300-

NORTHERN UTAH

CITY           SKY/WX    TMP DP  RH WIND       PRES   REMARKS
HILL AFB       MOCLDY    97  41  14 SE7       29.99F THUNDER HX  92
LOGAN          NOT AVBL
OGDEN          PTCLDY    98  37  12 NE6       29.94F HX  93
PROVO AIRPORT  MOCLDY    91  46  21 SE13      30.02S
SALT LAKE CITY MOCLDY    95  39  14 S20G28    29.93S HX  91
VERNAL         MOCLDY    87  40  19 NW9       30.12S
WENDOVER       CLEAR    100  36  10 SW17G23   29.91S HX  95
HEBER CITY     MOCLDY    82  41  23 CALM      30.13S
WEST JORDAN    CLEAR     93  54  26 S15G21    30.00S HX  91

$$

UTZ012>022-026-027-240300-

SOUTHERN UTAH

CITY           SKY/WX    TMP DP  RH WIND       PRES   REMARKS
BRYCE CANYON   PTCLDY    83  37  19 S9        30.34S
CEDAR CITY     CLEAR     90  32  12 SW12      30.14S
MILFORD        CLEAR     95  37  13 SW16G26   30.06R HX  90
MOAB/CYNLANDS  CLEAR     95  36  12 N13       30.03S HX  90
PRICE          CLOUDY    87  35  15 SW16G23   30.22R
ST GEORGE      MOCLDY   104  37  10 W14       29.91S HX  98
KANAB            N/A     93  39  15 W8        30.11S

$$

REGIONAL REPORTS     COLORADO/ARIZONA

CITY           SKY/WX    TMP DP  RH WIND       PRES   REMARKS
CRAIG, CO      MOCLDY    81  43  26 NW8       30.21S
GRAND JUNCTION PTCLDY    93  39  15 S8        30.09S
RIFLE          MOCLDY    91  34  13 E6        30.17R
MONTROSE       MOCLDY    84  46  26 SE6       30.22R
CORTEZ         CLEAR     90  36  14 S9        30.21S
PAGE, AZ       PTCLDY    99  43  14 E15       30.03S HX  95
GRAND CANYON   MOCLDY    85  38  18 W6        30.29R
KINGMAN        PTCLDY    99  36  11 SW14      29.99F HX  93
FLAGSTAFF      MOCLDY    78  44  29 S7        30.35R

$$

REGIONAL REPORTS    NEVADA/IDAHO/WYOMING

CITY           SKY/WX    TMP DP  RH WIND       PRES   REMARKS
LAS VEGAS, NV  PTCLDY   107  23   5 SW16      29.80S HX  99
ELY            CLEAR     90  16   6 S13       30.14S
ELKO           SUNNY     89  14   6 W15G29    30.05R
POCATELLO, ID  PTCLDY    94  35  12 E6        29.96F
BURLEY         PTSUNNY   88  52  29 W5        29.92S
EVANSTON, WY   PTCLDY    81  42  25 S13G22    30.25S
ROCK SPRINGS   CLOUDY    83  31  15 S15       30.25R

$$



USA.gov is the U.S. government's official web portal to all federal, state and local government web resources and services.